Wind_Speed
8 9 10 11 12 13 15 16 17 19 21 21 21 22 22 23 23 22 22 21 21 21 21 21 21 22 22 23 24 24 24 25 25 25 26 26 27 27 28 29 29 30 31
6 8 11 12 12 13 15 16 17 18 20 21 22 22 22 23 23 23 23 22 22 22 23 23 23 24 24 25 25 26 26 26 27 27 28 28 29 30 31 32 32 33 34
6 7 9 11 12 13 14 16 17 19 20 21 22 22 22 21 22 22 23 23 23 24 24 25 24 24 25 26 27 27 28 29 29 29 30 31 31 32 34 35 36 37 38
7 8 9 10 11 13 14 15 16 17 18 20 21 21 21 21 21 22 22 23 24 25 25 25 25 26 26 27 28 29 29 30 31 32 33 33 34 35 36 37 39 40 40
8 9 10 10 11 12 13 15 15 16 17 19 20 21 21 21 21 22 22 23 24 26 27 27 27 27 28 29 30 31 31 31 32 34 35 35 36 38 39 40 41 42 43
10 11 12 12 12 13 14 15 15 16 17 18 19 20 21 21 22 22 23 24 25 25 26 27 27 27 29 30 31 32 34 34 34 36 37 38 39 40 41 42 43 45 47
12 12 12 13 13 13 14 15 16 17 18 19 19 20 20 21 22 23 24 24 25 25 27 28 29 30 32 32 32 33 35 36 37 38 40 40 41 42 44 45 46 48 49
15 14 14 14 15 15 15 16 18 20 21 21 21 22 23 23 23 24 24 25 25 26 28 29 30 31 32 32 33 34 35 37 38 41 42 42 43 45 46 48 48 49 51
17 16 16 17 17 17 17 18 19 20 21 22 22 23 24 25 25 26 27 28 28 28 28 30 31 32 33 33 35 36 37 38 40 41 42 44 45 46 48 49 51 52 53
19 18 18 18 19 20 20 19 20 21 22 23 24 24 24 25 26 26 27 29 29 29 30 31 32 33 34 35 37 39 40 41 42 43 44 46 47 49 50 51 52 54 55
21 21 20 20 20 21 21 21 21 22 23 23 23 23 24 25 26 27 29 30 30 31 32 32 34 36 37 38 39 41 43 44 45 46 47 48 49 50 51 53 54 56 57
23 23 22 22 23 23 23 23 23 24 25 24 24 24 24 25 26 28 29 31 32 33 33 35 36 37 39 41 42 43 44 45 46 47 48 49 51 52 53 55 56 58 59
24 23 23 24 24 25 25 26 27 26 26 26 26 26 27 27 28 29 30 32 33 34 35 36 38 39 40 42 43 44 44 45 46 48 49 51 52 54 55 56 57 58 59
25 25 25 26 26 26 25 26 26 27 27 28 28 27 28 29 30 30 32 34 35 35 36 38 39 41 42 43 43 43 44 45 47 49 50 51 53 54 55 55 56 56 56
26 26 26 27 27 27 27 27 26 27 27 27 28 29 29 29 30 32 35 35 36 37 39 40 41 42 43 42 43 44 45 46 48 49 50 51 52 53 54 54 54 54 54
27 27 27 27 27 27 27 27 28 28 28 28 29 30 31 32 33 34 34 34 35 37 39 41 41 42 42 43 44 45 46 46 48 49 50 50 51 51 52 52 52 52 52
26 26 27 27 26 27 27 26 26 26 27 28 29 30 31 32 32 32 33 35 36 38 39 40 40 40 41 42 43 44 45 46 47 48 49 49 49 49 49 49 49 49 49
25 25 25 26 26 26 27 27 28 28 28 29 29 29 31 31 32 34 35 36 37 38 38 39 39 40 41 42 42 43 45 46 46 47 47 47 47 47 47 47 47 46 46
24 24 24 25 25 25 26 26 26 27 28 28 28 29 30 31 33 34 35 35 36 37 37 38 38 39 40 41 42 43 44 45 45 45 45 44 44 44 44 44 44 43 43
22 22 22 22 22 23 24 25 25 26 28 28 28 29 30 31 32 33 34 35 35 36 36 36 37 39 40 41 41 42 43 43 43 42 42 42 41 40 40 40 39 39 39
20 20 20 21 21 21 22 24 25 26 27 27 27 28 29 30 31 32 33 34 34 35 35 36 37 38 39 40 40 40 40 40 39 39 38 38 37 37 37 37 37 37 36
17 18 19 19 20 21 22 23 24 25 25 26 27 27 28 29 30 31 32 33 33 34 35 36 36 37 38 37 37 37 36 36 36 35 35 34 34 34 34 34 34 34 34
16 17 18 19 20 21 21 22 23 24 25 25 26 27 28 29 30 30 31 31 32 32 33 34 35 35 35 34 34 33 33 32 32 32 32 32 32 32 32 32 32 32 32
17 17 18 19 20 21 22 22 23 24 24 25 26 26 27 28 28 28 29 30 30 31 32 32 32 32 31 31 30 30 30 30 30 30 30 30 30 30 30 30 30 30 31
16 18 18 19 20 21 22 22 23 23 23 24 24 25 26 26 27 27 28 28 29 29 29 29 29 28 28 28 28 28 28 28 28 28 28 28 28 28 28 28 29 29 30
17 18 18 19 19 19 20 20 21 21 22 23 24 24 25 25 25 25 26 26 25 25 25 25 25 25 25 25 25 25 26 26 26 26 26 26 27 28 28 28 29 29 29
Wind_Direction
252 240 237 239 239 235 233 234 234 233 232 232 231 232 233 233 234 235 237 239 243 246 248 250 253 256 259 261 263 267 269 271 273 274 275 276 276 277 278 279 281 281 282
260 246 241 242 240 238 239 238 235 235 234 234 235 234 234 235 238 239 240 243 246 249 252 253 256 258 261 263 265 267 269 271 273 275 277 278 278 279 279 280 281 282 283
269 259 250 247 247 246 245 244 239 236 235 235 236 236 238 239 241 243 245 247 249 251 254 255 257 261 263 265 267 269 270 271 273 275 277 277 279 280 281 281 282 283 284
275 265 260 255 253 252 250 246 242 239 238 238 236 237 240 242 244 246 247 249 251 252 254 256 259 263 266 268 269 271 272 274 275 276 277 278 280 281 282 283 283 283 284
277 271 266 263 261 257 254 248 246 246 244 241 239 241 242 243 245 246 248 251 254 255 257 258 261 265 267 269 271 272 273 274 276 277 278 279 280 281 282 282 283 283 284
279 278 272 271 269 261 255 250 249 248 247 245 243 244 244 244 246 248 249 253 255 257 258 261 264 268 269 270 273 274 274 275 276 278 279 280 281 282 282 283 284 284 285
280 278 275 272 270 263 256 249 248 248 247 247 246 247 248 249 250 252 253 256 259 262 263 264 266 269 270 272 275 276 277 278 279 280 282 283 283 284 284 285 285 285 285
280 275 268 268 267 265 257 253 252 251 249 251 250 250 251 253 255 256 258 261 264 266 267 268 270 272 274 277 278 277 279 281 282 283 284 285 286 286 286 287 287 287 287
275 271 265 263 262 260 258 255 255 254 255 255 256 255 256 258 259 260 262 263 265 267 269 271 272 274 276 278 279 281 282 283 284 286 286 287 288 289 289 289 289 289 289
270 268 266 263 262 260 258 256 254 254 258 261 259 259 261 261 260 261 263 264 266 269 271 274 276 279 281 281 282 283 284 285 286 286 287 288 290 290 290 290 290 290 291
267 264 262 264 264 262 261 259 257 258 260 262 262 263 263 264 264 264 266 267 269 272 273 276 279 282 283 284 285 285 287 287 288 288 289 290 291 291 291 291 292 293 293
265 263 261 262 263 263 262 262 261 260 260 262 263 264 266 267 268 266 266 268 271 274 275 278 280 282 284 286 287 288 289 289 289 290 291 292 293 293 293 294 294 295 295
263 263 262 261 262 262 262 263 263 262 262 263 263 265 267 268 269 269 269 271 274 276 278 281 283 285 287 288 289 288 288 289 291 292 293 294 295 295 296 296 296 296 296
262 261 262 262 261 261 262 262 262 261 262 262 263 267 270 273 272 273 276 277 277 279 283 285 286 287 288 289 289 289 290 291 293 295 296 296 297 297 298 298 298 298 298
261 261 263 261 262 263 262 262 263 263 263 265 267 269 271 274 276 278 281 281 282 283 284 285 286 288 288 289 291 292 293 295 296 297 298 299 300 300 300 300 300 300 300
261 263 263 263 262 262 262 265 268 269 269 272 273 274 274 276 280 281 282 283 286 287 287 288 289 290 291 292 293 295 297 298 298 299 301 301 302 302 302 302 302 302 302
260 261 263 262 261 263 265 267 269 269 271 272 273 274 275 278 281 283 285 287 289 290 290 290 291 293 294 295 297 298 299 300 301 301 302 303 303 304 304 304 304 304 304
261 261 263 261 263 265 266 269 271 271 271 272 275 277 277 278 282 285 286 288 289 291 292 292 293 295 297 298 299 300 301 302 303 303 304 304 305 305 306 306 306 306 305
261 261 262 263 264 266 269 270 271 273 275 276 278 280 282 284 285 288 289 291 292 293 294 296 297 298 300 301 302 303 304 304 305 305 306 306 307 307 308 307 307 308 308
263 263 264 264 264 267 269 269 271 273 277 279 281 284 287 288 290 292 294 295 295 296 297 298 300 302 302 303 304 305 306 307 308 308 308 309 310 310 310 310 311 311 311
262 263 263 264 268 271 273 274 275 277 280 281 284 288 290 292 293 294 295 296 298 300 301 302 303 304 305 306 306 307 308 309 310 311 311 312 313 313 313 314 314 315 315
265 264 266 269 275 278 281 282 282 282 282 285 288 291 293 295 296 297 298 300 302 303 303 305 306 307 308 309 309 310 311 311 312 314 315 315 315 316 317 317 318 318 318
268 270 272 275 279 282 282 282 283 285 286 288 291 294 296 297 298 300 303 305 305 306 307 308 309 310 311 311 312 313 314 315 316 317 318 318 319 319 320 321 322 322 323
274 276 278 280 283 284 285 286 288 290 289 292 295 297 299 301 303 305 307 308 308 309 310 310 311 312 314 314 315 316 317 318 319 320 321 322 324 325 325 326 327 327 327
277 280 283 284 286 288 291 291 292 292 294 296 298 301 304 306 307 309 310 311 311 312 313 314 315 315 316 317 319 320 321 323 324 325 326 328 330 331 331 331 331 332 331
282 286 289 291 291 293 295 295 295 296 299 302 304 306 307 308 309 310 312 313 314 316 318 319 320 321 322 323 324 325 326 328 329 329 331 332 334 334 335 335 335 335 335
Height
5836 5837 5837 5838 5839 5840 5842 5843 5844 5846 5848 5850 5852 5854 5856 5858 5860 5862 5864 5865 5867 5868 5869 5869 5870 5870 5870 5870 5870 5870 5870 5869 5869 5868 5867 5866 5865 5864 5863 5862 5860 5859 5858
5835 5835 5835 5836 5837 5838 5839 5840 5841 5843 5844 5846 5848 5850 5851 5854 5856 5857 5859 5860 5862 5863 5864 5865 5865 5865 5865 5865 5865 5864 5864 5863 5862 5861 5860 5859 5858 5857 5856 5854 5852 5850 5849
5833 5833 5833 5833 5834 5835 5836 5836 5838 5839 5840 5842 5844 5845 5847 5849 5851 5852 5854 5855 5856 5857 5858 5859 5859 5859 5859 5859 5858 5858 5857 5856 5855 5854 5853 5852 5851 5849 5847 5846 5844 5841 5839
5832 5831 5831 5831 5831 5832 5832 5833 5834 5835 5836 5838 5839 5841 5843 5845 5846 5848 5849 5850 5851 5851 5852 5852 5853 5853 5853 5852 5852 5851 5850 5849 5848 5847 5845 5844 5842 5841 5839 5837 5834 5832 5830
5830 5829 5829 5829 5829 5829 5829 5830 5831 5832 5833 5834 5836 5837 5839 5840 5841 5843 5844 5844 5845 5845 5846 5846 5846 5846 5846 5846 5845 5844 5843 5841 5840 5838 5837 5835 5834 5832 5829 5827 5824 5821 5819
5827 5827 5826 5826 5826 5826 5826 5826 5827 5828 5829 5830 5832 5833 5834 5835 5836 5838 5838 5839 5839 5839 5839 5839 5839 5839 5839 5838 5837 5836 5834 5833 5831 5830 5828 5826 5824 5821 5819 5816 5813 5810 5807
5824 5824 5823 5823 5823 5823 5823 5823 5824 5824 5825 5826 5827 5828 5829 5831 5832 5832 5833 5833 5833 5833 5833 5832 5832 5831 5830 5830 5828 5827 5825 5824 5822 5820 5818 5816 5813 5811 5808 5805 5801 5798 5795
5821 5820 5820 5820 5820 5819 5819 5819 5820 5820 5820 5821 5822 5823 5824 5825 5826 5826 5827 5827 5826 5826 5826 5825 5825 5824 5822 5821 5820 5818 5816 5815 5813 5810 5808 5805 5802 5799 5795 5792 5789 5785 5781
5817 5817 5817 5816 5816 5816 5815 5815 5816 5816 5816 5817 5817 5818 5819 5819 5819 5820 5820 5820 5820 5819 5819 5818 5817 5816 5814 5813 5811 5809 5807 5805 5803 5800 5797 5793 5790 5786 5783 5779 5775 5771 5767
5812 5812 5812 5812 5812 5811 5811 5811 5812 5812 5812 5812 5812 5812 5812 5812 5813 5813 5813 5813 5813 5812 5811 5810 5809 5807 5806 5804 5802 5800 5797 5794 5792 5788 5785 5781 5778 5774 5770 5765 5761 5756 5751
5807 5807 5807 5806 5806 5806 5806 5806 5806 5807 5806 5806 5806 5806 5806 5806 5806 5806 5806 5805 5805 5804 5803 5802 5800 5799 5796 5794 5792 5789 5786 5783 5779 5776 5772 5768 5764 5760 5755 5751 5746 5741 5736
5800 5800 5800 5801 5801 5801 5801 5801 5801 5801 5801 5800 5800 5800 5800 5800 5799 5799 5798 5798 5797 5795 5794 5793 5791 5789 5787 5784 5781 5778 5774 5771 5767 5763 5759 5754 5750 5745 5740 5735 5730 5724 5718
5794 5794 5794 5794 5794 5794 5794 5794 5794 5794 5794 5794 5794 5794 5794 5793 5792 5791 5790 5789 5788 5787 5785 5783 5781 5779 5776 5773 5770 5766 5762 5758 5754 5750 5745 5741 5736 5730 5725 5719 5713 5707 5701
5787 5787 5787 5787 5787 5787 5787 5787 5787 5787 5787 5787 5787 5787 5786 5786 5785 5783 5782 5780 5779 5777 5775 5773 5771 5768 5765 5761 5758 5754 5750 5746 5741 5736 5731 5726 5721 5715 5710 5703 5697 5691 5684
5779 5780 5780 5780 5780 5780 5780 5780 5780 5780 5780 5780 5780 5779 5779 5778 5776 5775 5774 5772 5770 5768 5765 5763 5759 5756 5753 5749 5745 5742 5737 5733 5728 5723 5717 5712 5706 5700 5694 5687 5681 5674 5668
5772 5772 5773 5773 5773 5773 5773 5773 5772 5772 5772 5772 5772 5771 5770 5769 5768 5766 5765 5763 5760 5758 5755 5752 5748 5745 5741 5737 5733 5729 5724 5720 5715 5709 5703 5697 5691 5685 5679 5672 5666 5659 5653
5765 5765 5765 5765 5766 5766 5766 5765 5765 5765 5764 5764 5764 5763 5762 5761 5759 5757 5755 5753 5750 5747 5744 5741 5737 5733 5729 5725 5721 5716 5712 5707 5701 5695 5690 5683 5677 5671 5665 5658 5652 5646 5639
5758 5758 5759 5759 5759 5759 5759 5758 5758 5758 5757 5757 5756 5755 5754 5752 5750 5748 5746 5743 5740 5737 5733 5729 5726 5722 5718 5714 5709 5704 5699 5694 5688 5682 5676 5670 5664 5658 5651 5645 5639 5633 5626
5751 5752 5752 5752 5752 5752 5751 5751 5751 5750 5750 5749 5748 5746 5745 5743 5741 5739 5736 5733 5730 5726 5722 5719 5715 5711 5707 5702 5697 5692 5687 5681 5675 5669 5664 5658 5652 5646 5639 5633 5627 5621 5615
5745 5745 5745 5745 5745 5745 5744 5744 5743 5743 5742 5741 5740 5738 5736 5734 5732 5729 5726 5723 5720 5716 5712 5709 5705 5700 5696 5691 5686 5680 5675 5669 5664 5658 5652 5646 5640 5635 5629 5623 5617 5611 5605
5739 5739 5739 5739 5739 5738 5738 5737 5736 5735 5734 5733 5732 5730 5728 5726 5723 5720 5717 5714 5710 5706 5703 5699 5694 5690 5685 5680 5675 5669 5664 5659 5653 5648 5642 5636 5631 5625 5619 5613 5607 5602 5595
5734 5733 5733 5733 5733 5732 5731 5730 5729 5728 5726 5725 5723 5721 5719 5717 5714 5711 5708 5704 5701 5697 5693 5689 5684 5679 5674 5670 5665 5659 5654 5649 5644 5639 5633 5628 5622 5617 5611 5605 5599 5593 5587
5729 5728 5728 5727 5727 5726 5724 5723 5722 5721 5719 5717 5715 5713 5711 5708 5705 5702 5699 5695 5692 5688 5683 5679 5675 5670 5665 5660 5655 5651 5646 5641 5636 5631 5626 5620 5615 5609 5604 5598 5592 5586 5580
5723 5723 5722 5722 5721 5720 5718 5717 5715 5713 5712 5710 5708 5705 5702 5700 5697 5693 5690 5687 5683 5679 5674 5670 5666 5661 5657 5652 5648 5643 5639 5634 5629 5624 5619 5614 5608 5603 5597 5591 5586 5580 5574
5718 5717 5716 5716 5714 5713 5712 5710 5708 5706 5704 5702 5700 5697 5695 5692 5689 5686 5682 5679 5675 5671 5666 5662 5658 5654 5650 5646 5642 5637 5633 5628 5623 5618 5613 5608 5603 5597 5592 5586 5581 5575 5569
5712 5711 5710 5709 5708 5707 5705 5703 5701 5700 5697 5695 5693 5690 5687 5685 5682 5678 5675 5671 5668 5664 5660 5656 5652 5648 5644 5640 5636 5632 5627 5623 5618 5613 5608 5603 5598 5593 5587 5582 5576 5570 5564